Location: Burgwalden
(48.2830°N, 10.7576°E)
Time: 01:51:37
(UTC+00:00)

Cosmos 1048 Rocket - Pass Details

Date: 26 September 2023
Orbit: 742 x 789 km, 74.0° (Epoch: 04 December)

Event Time Altitude Azimuth Distance (km) Brightness Sun altitude
Rises 03:50:34 0° 334° (NNW) 3,274 7.1 -13.7°
Reaches altitude 10° 03:53:00 10° 331° (NNW) 2,336 6.4 -13.3°
Maximum altitude 03:58:13 62° 252° (WSW) 864 4.0 -12.4°
Drops below altitude 10° 04:03:20 10° 173° (S) 2,288 6.4 -11.6°
Sets 04:05:42 0° 170° (S) 3,202 7.2 -11.2°
